Total_Precipitation_Accumulation
0.91 0.90 0.97 0.97 1.02 1.13 1.14 1.22 1.33 1.22 1.00 0.73 0.50 0.32 0.19 0.20 0.17 0.18 0.28 0.37 0.42 0.13 0.02 0.00 0.00 0.01 0.00 0.00 0.02 0.02 0.09 0.13 0.20 0.26 0.24 0.10 0.03 0.01 0.00 0.00 0.00 0.02 0.04 0.06 0.06 0.10 0.01 0.00 0.00 0.00 0.00 0.00 0.00 0.01
0.85 0.76 0.85 0.80 0.66 0.63 0.50 0.63 0.84 0.80 0.62 0.52 0.43 0.28 0.16 0.18 0.21 0.25 0.26 0.29 0.25 0.15 0.01 0.00 0.00 0.00 0.00 0.00 0.02 0.01 0.08 0.12 0.22 0.24 0.19 0.09 0.04 0.01 0.00 0.01 0.00 0.00 0.00 0.00 0.00 0.00 0.00 0.00 0.00 0.00 0.00 0.00 0.00 0.00
0.78 0.79 0.90 1.06 0.96 0.85 0.72 0.71 0.87 0.87 0.61 0.47 0.36 0.19 0.13 0.16 0.16 0.30 0.30 0.23 0.24 0.25 0.05 0.03 0.02 0.00 0.00 0.00 0.00 0.04 0.07 0.15 0.23 0.21 0.32 0.15 0.06 0.04 0.02 0.01 0.00 0.00 0.00 0.00 0.00 0.00 0.00 0.00 0.00 0.00 0.00 0.00 0.00 0.01
0.73 0.70 0.72 0.98 1.23 1.25 1.30 1.20 1.09 0.87 0.60 0.51 0.32 0.16 0.11 0.11 0.16 0.23 0.11 0.10 0.22 0.26 0.19 0.05 0.01 0.02 0.01 0.02 0.02 0.02 0.09 0.17 0.29 0.48 0.33 0.19 0.08 0.03 0.02 0.01 0.00 0.01 0.00 0.00 0.00 0.00 0.00 0.00 0.00 0.00 0.00 0.00 0.00 0.00
1.03 0.88 0.65 0.64 0.79 0.84 1.01 1.12 0.97 0.67 0.55 0.49 0.36 0.14 0.15 0.18 0.16 0.08 0.02 0.07 0.16 0.32 0.34 0.18 0.16 0.01 0.01 0.05 0.04 0.06 0.11 0.30 0.34 0.59 0.57 0.22 0.09 0.06 0.02 0.01 0.00 0.00 0.00 0.00 0.00 0.00 0.00 0.00 0.00 0.00 0.00 0.00 0.00 0.00
1.00 1.12 1.20 0.80 0.63 0.68 0.82 0.71 0.57 0.51 0.53 0.46 0.22 0.18 0.17 0.10 0.14 0.15 0.20 0.36 0.28 0.32 0.60 0.43 0.34 0.16 0.06 0.09 0.09 0.15 0.22 0.43 0.67 0.50 0.53 0.33 0.13 0.20 0.17 0.05 0.00 0.00 0.00 0.00 0.00 0.00 0.00 0.00 0.00 0.00 0.00 0.00 0.00 0.00
0.79 0.97 1.27 1.40 0.87 0.65 0.76 0.79 0.51 0.51 0.46 0.28 0.16 0.13 0.07 0.04 0.11 0.12 0.25 0.62 0.58 0.57 0.68 0.78 0.66 0.48 0.14 0.23 0.27 0.30 0.31 0.55 0.89 0.66 0.41 0.33 0.29 0.53 0.34 0.05 0.00 0.01 0.01 0.01 0.01 0.00 0.00 0.00 0.00 0.00 0.00 0.00 0.00 0.00
0.72 0.74 0.92 1.39 1.16 0.74 0.62 0.73 0.53 0.49 0.31 0.14 0.08 0.04 0.01 0.08 0.06 0.07 0.05 0.19 0.49 0.88 0.91 1.04 0.98 0.96 0.32 0.53 0.46 0.40 0.39 0.48 1.03 0.74 0.34 0.24 0.35 0.35 0.20 0.02 0.05 0.04 0.04 0.02 0.01 0.02 0.01 0.01 0.00 0.00 0.00 0.00 0.00 0.00
0.88 0.76 0.67 0.87 1.22 0.74 0.63 0.63 0.53 0.39 0.15 0.03 0.00 0.01 0.08 0.06 0.04 0.12 0.21 0.40 0.63 1.02 0.82 0.77 0.90 0.80 0.64 0.64 0.48 0.56 0.47 0.57 0.72 0.54 0.23 0.25 0.27 0.29 0.06 0.08 0.11 0.14 0.15 0.17 0.13 0.06 0.06 0.05 0.02 0.03 0.02 0.03 0.04 0.04
0.95 1.00 0.69 0.62 0.89 0.71 0.60 0.59 0.38 0.16 0.04 0.01 0.01 0.04 0.11 0.02 0.05 0.48 0.83 1.06 1.07 0.83 0.58 0.62 0.54 0.45 0.89 0.67 0.60 0.65 0.35 0.56 0.65 0.31 0.24 0.30 0.19 0.03 0.05 0.12 0.09 0.15 0.30 0.34 0.42 0.30 0.17 0.23 0.14 0.10 0.15 0.11 0.12 0.14
0.86 1.01 0.77 0.61 0.63 0.52 0.50 0.44 0.20 0.06 0.01 0.00 0.02 0.05 0.04 0.05 0.62 1.16 1.33 1.06 0.65 0.44 0.43 0.40 0.40 0.37 0.48 0.55 0.38 0.42 0.50 0.46 0.70 0.47 0.32 0.31 0.30 0.12 0.07 0.05 0.04 0.08 0.18 0.14 0.31 0.32 0.20 0.30 0.35 0.25 0.29 0.33 0.34 0.35
0.88 0.95 0.85 0.67 0.62 0.37 0.37 0.28 0.08 0.02 0.02 0.04 0.06 0.06 0.12 0.44 1.03 0.97 0.96 0.59 0.25 0.21 0.22 0.27 0.28 0.33 0.43 0.30 0.49 0.40 0.36 0.33 0.35 0.32 0.45 0.41 0.27 0.18 0.20 0.09 0.06 0.04 0.06 0.07 0.10 0.22 0.18 0.11 0.16 0.19 0.27 0.30 0.29 0.34
0.88 0.88 0.76 0.58 0.55 0.36 0.29 0.14 0.02 0.01 0.02 0.02 0.05 0.16 0.30 0.56 0.73 0.55 0.45 0.25 0.10 0.09 0.08 0.11 0.26 0.22 0.39 0.36 0.41 0.46 0.26 0.16 0.34 0.44 0.40 0.18 0.06 0.03 0.10 0.19 0.20 0.16 0.10 0.25 0.27 0.18 0.11 0.09 0.11 0.14 0.15 0.11 0.10 0.11
0.90 0.82 0.61 0.53 0.46 0.36 0.25 0.06 0.02 0.02 0.03 0.01 0.07 0.15 0.25 0.32 0.37 0.27 0.17 0.14 0.05 0.04 0.03 0.05 0.12 0.20 0.27 0.23 0.24 0.26 0.13 0.28 0.49 0.33 0.22 0.07 0.06 0.04 0.02 0.05 0.10 0.14 0.13 0.24 0.56 0.60 0.44 0.44 0.40 0.30 0.21 0.15 0.12 0.11
0.87 0.82 0.64 0.58 0.42 0.35 0.23 0.03 0.00 0.01 0.01 0.02 0.10 0.13 0.15 0.22 0.09 0.05 0.04 0.05 0.02 0.02 0.03 0.02 0.08 0.13 0.18 0.23 0.21 0.20 0.28 0.46 0.31 0.26 0.17 0.10 0.09 0.08 0.06 0.03 0.03 0.07 0.13 0.16 0.25 0.33 0.40 0.29 0.16 0.20 0.27 0.25 0.17 0.13
0.96 1.08 0.83 0.58 0.38 0.30 0.12 0.00 0.00 0.01 0.01 0.02 0.07 0.15 0.11 0.07 0.04 0.01 0.01 0.02 0.02 0.02 0.05 0.06 0.11 0.14 0.16 0.26 0.21 0.27 0.47 0.40 0.23 0.15 0.10 0.05 0.09 0.07 0.05 0.04 0.01 0.00 0.01 0.06 0.14 0.19 0.24 0.22 0.16 0.13 0.17 0.27 0.23 0.20
1.28 1.37 0.92 0.57 0.39 0.17 0.03 0.00 0.00 0.01 0.01 0.03 0.03 0.09 0.10 0.06 0.06 0.04 0.02 0.00 0.01 0.07 0.17 0.25 0.26 0.13 0.12 0.14 0.13 0.21 0.31 0.19 0.09 0.06 0.02 0.01 0.01 0.01 0.01 0.00 0.00 0.00 0.01 0.03 0.09 0.13 0.20 0.25 0.24 0.18 0.16 0.16 0.16 0.22
0.74 0.61 0.70 0.58 0.34 0.11 0.04 0.01 0.01 0.01 0.01 0.01 0.00 0.01 0.01 0.03 0.04 0.05 0.03 0.02 0.02 0.11 0.27 0.50 0.30 0.15 0.05 0.03 0.03 0.07 0.10 0.06 0.06 0.03 0.02 0.01 0.00 0.00 0.01 0.02 0.00 0.03 0.12 0.18 0.17 0.16 0.17 0.17 0.16 0.12 0.11 0.10 0.10 0.09
0.45 0.46 0.59 0.39 0.17 0.06 0.04 0.01 0.00 0.00 0.00 0.00 0.00 0.00 0.00 0.00 0.03 0.04 0.03 0.03 0.05 0.12 0.22 0.32 0.25 0.08 0.00 0.00 0.01 0.00 0.00 0.01 0.01 0.01 0.01 0.00 0.00 0.00 0.01 0.04 0.06 0.07 0.20 0.14 0.05 0.06 0.05 0.06 0.09 0.10 0.10 0.10 0.09 0.08
0.59 0.64 0.52 0.27 0.07 0.01 0.00 0.00 0.00 0.00 0.00 0.00 0.00 0.00 0.00 0.00 0.00 0.03 0.06 0.04 0.07 0.27 0.33 0.20 0.06 0.03 0.03 0.03 0.03 0.02 0.00 0.00 0.00 0.00 0.00 0.00 0.00 0.00 0.00 0.02 0.05 0.07 0.08 0.08 0.09 0.10 0.09 0.07 0.06 0.06 0.06 0.07 0.09 0.10
1.27 0.92 0.65 0.25 0.13 0.03 0.01 0.00 0.00 0.00 0.00 0.00 0.00 0.00 0.00 0.00 0.00 0.01 0.07 0.16 0.23 0.33 0.27 0.13 0.05 0.03 0.04 0.06 0.05 0.03 0.00 0.00 0.00 0.00 0.00 0.00 0.00 0.00 0.00 0.00 0.00 0.01 0.02 0.03 0.05 0.06 0.08 0.07 0.08 0.07 0.07 0.09 0.11 0.10
1.37 0.64 0.39 0.32 0.18 0.08 0.03 0.01 0.00 0.01 0.01 0.00 0.01 0.01 0.01 0.01 0.01 0.04 0.08 0.19 0.29 0.16 0.12 0.12 0.13 0.11 0.08 0.07 0.07 0.07 0.05 0.02 0.00 0.00 0.00 0.00 0.00 0.00 0.00 0.00 0.00 0.00 0.00 0.01 0.01 0.00 0.01 0.02 0.03 0.05 0.07 0.10 0.13 0.09
0.70 0.41 0.35 0.28 0.18 0.11 0.05 0.02 0.02 0.01 0.01 0.01 0.01 0.01 0.01 0.01 0.02 0.04 0.10 0.11 0.12 0.10 0.08 0.08 0.12 0.16 0.17 0.14 0.14 0.12 0.11 0.08 0.04 0.02 0.01 0.00 0.00 0.00 0.00 0.00 0.00 0.00 0.00 0.00 0.01 0.01 0.00 0.00 0.00 0.00 0.00 0.02 0.06 0.08
0.32 0.39 0.36 0.29 0.17 0.08 0.04 0.03 0.02 0.02 0.02 0.01 0.01 0.01 0.01 0.00 0.03 0.06 0.06 0.04 0.03 0.04 0.08 0.12 0.11 0.10 0.10 0.12 0.14 0.18 0.21 0.19 0.13 0.09 0.07 0.05 0.03 0.02 0.01 0.01 0.00 0.00 0.00 0.00 0.00 0.00 0.00 0.00 0.00 0.00 0.00 0.00 0.01 0.02
0.61 0.49 0.32 0.28 0.11 0.05 0.03 0.03 0.02 0.02 0.01 0.02 0.03 0.01 0.01 0.02 0.02 0.02 0.02 0.00 0.01 0.03 0.06 0.09 0.11 0.12 0.11 0.10 0.10 0.10 0.12 0.19 0.21 0.19 0.18 0.15 0.12 0.11 0.09 0.06 0.03 0.01 0.01 0.02 0.02 0.01 0.00 0.00 0.00 0.00 0.00 0.00 0.01 0.02
0.59 0.23 0.10 0.03 0.02 0.02 0.01 0.01 0.01 0.01 0.03 0.04 0.03 0.01 0.01 0.03 0.02 0.01 0.00 0.00 0.01 0.03 0.05 0.07 0.07 0.08 0.07 0.08 0.10 0.12 0.13 0.15 0.16 0.18 0.22 0.25 0.21 0.17 0.16 0.16 0.11 0.07 0.05 0.05 0.07 0.06 0.04 0.01 0.01 0.01 0.01 0.02 0.04 0.04
0.26 0.15 0.06 0.01 0.01 0.01 0.01 0.01 0.02 0.03 0.05 0.04 0.01 0.01 0.02 0.04 0.01 0.01 0.01 0.00 0.01 0.02 0.04 0.08 0.12 0.11 0.08 0.10 0.11 0.12 0.15 0.17 0.18 0.16 0.22 0.33 0.34 0.27 0.19 0.17 0.15 0.12 0.12 0.13 0.11 0.09 0.08 0.06 0.05 0.05 0.06 0.06 0.07 0.07
0.06 0.00 0.01 0.03 0.01 0.01 0.02 0.04 0.07 0.05 0.03 0.02 0.04 0.03 0.03 0.02 0.01 0.00 0.00 0.00 0.01 0.02 0.04 0.08 0.12 0.15 0.14 0.12 0.14 0.16 0.18 0.21 0.25 0.26 0.30 0.36 0.40 0.40 0.34 0.30 0.30 0.31 0.28 0.21 0.18 0.18 0.16 0.14 0.12 0.14 0.16 0.13 0.10 0.10
0.03 0.01 0.01 0.03 0.02 0.02 0.02 0.04 0.02 0.00 0.00 0.00 0.02 0.00 0.00 0.00 0.00 0.00 0.00 0.01 0.02 0.04 0.06 0.09 0.12 0.14 0.17 0.18 0.19 0.22 0.24 0.24 0.20 0.19 0.15 0.20 0.29 0.41 0.45 0.42 0.44 0.44 0.38 0.35 0.32 0.27 0.26 0.27 0.28 0.28 0.30 0.28 0.25 0.24
0.02 0.00 0.01 0.01 0.01 0.02 0.02 0.01 0.01 0.00 0.00 0.00 0.00 0.00 0.00 0.00 0.00 0.00 0.00 0.01 0.04 0.07 0.11 0.14 0.16 0.19 0.21 0.22 0.23 0.23 0.25 0.28 0.26 0.17 0.16 0.16 0.20 0.31 0.40 0.41 0.44 0.47 0.46 0.42 0.48 0.53 0.51 0.50 0.50 0.48 0.43 0.39 0.34 0.31
0.01 0.01 0.00 0.00 0.01 0.01 0.01 0.01 0.00 0.00 0.00 0.00 0.00 0.00 0.00 0.00 0.00 0.01 0.01 0.03 0.07 0.11 0.16 0.19 0.22 0.27 0.28 0.30 0.29 0.27 0.26 0.32 0.37 0.36 0.31 0.34 0.32 0.32 0.38 0.43 0.44 0.46 0.47 0.44 0.39 0.37 0.36 0.31 0.28 0.27 0.28 0.27 0.26 0.25
0.02 0.01 0.01 0.00 0.00 0.01 0.01 0.01 0.00 0.00 0.00 0.00 0.00 0.01 0.00 0.00 0.01 0.01 0.02 0.05 0.10 0.13 0.17 0.21 0.21 0.26 0.31 0.31 0.33 0.35 0.30 0.31 0.36 0.39 0.37 0.34 0.33 0.33 0.38 0.41 0.43 0.44 0.44 0.44 0.40 0.39 0.38 0.37 0.38 0.35 0.35 0.34 0.31 0.28
0.08 0.07 0.05 0.04 0.03 0.01 0.01 0.01 0.02 0.02 0.01 0.00 0.00 0.00 0.01 0.01 0.01 0.02 0.03 0.07 0.11 0.14 0.16 0.21 0.26 0.28 0.28 0.28 0.31 0.35 0.38 0.39 0.41 0.44 0.46 0.44 0.43 0.45 0.42 0.38 0.40 0.41 0.40 0.41 0.44 0.45 0.47 0.43 0.41 0.40 0.36 0.33 0.31 0.29